{"data":{"norad_id":35943,"intl_designator":"2009-054B","name":"COMSATBW-1","alt_names":[],"object_type":"PAYLOAD","status":"ACTIVE","operator":null,"country":"GER","launch_date":"2009-10-01","launch_site_code":"FRGUI","launch_vehicle":null,"mission":null,"orbit_class":"UNKNOWN","rcs_meters":7.9433,"size_class":null,"mass_kg":null,"dimensions":null,"purposes":["comms"],"wikipedia_slug":null,"has_3d_model":false,"image_url":null,"decayed_at":null,"tle_current":{"epoch":"2026-09-19T22:24:12.564000Z","epoch_age_seconds":67248,"freshness":"FRESH","line1":"1 35943U 09054B   26262.93347875  .00000020  00000+0  00000+0 0  9996","line2":"2 35943   0.0242 156.4415 0003045  28.7097 212.7381  1.00272141 62252","mean_motion":1.00272141,"eccentricity":0.0003045,"inclination_deg":0.0242,"raan_deg":156.4415,"arg_perigee_deg":28.7097,"mean_anomaly_deg":212.7381,"bstar":0,"rev_number":6225,"period_min":1436.0918053999,"perigee_km":35773.65603127,"apogee_km":35799.334292256,"semimajor_km":42164.632161763,"source":"CELESTRAK","updated_at":"2026-09-20T09:00:35.159768Z"}}}